Theta_e
319 317 322 330 335 343 345 342 341 344 346 348 347 347 348 348 351 349 343 341 340 320 323 328 330 327 326 326 326 326 327 327 326 324 324 327 334 334 323 320 320 317 314 313 313 313 313 313 313
317 317 325 328 331 340 341 341 342 344 345 346 342 342 343 348 342 344 343 341 336 320 323 326 326 325 325 325 326 326 327 325 325 326 334 333 324 321 319 315 313 313 314 314 314 315 315 315 315
317 324 328 325 328 337 344 341 338 343 345 347 342 340 344 344 339 340 343 342 338 322 324 325 325 325 324 324 325 325 325 325 331 335 330 322 319 315 313 313 314 314 315 315 315 315 316 317 317
322 326 329 326 328 334 340 340 337 342 342 342 341 346 345 344 340 340 343 341 333 323 325 325 325 324 324 324 325 325 327 333 334 330 320 317 314 313 314 315 315 315 316 316 316 317 317 316 315
323 325 321 324 328 333 336 338 340 340 342 345 347 346 347 346 343 341 341 338 332 325 324 324 324 324 326 328 329 332 336 335 328 321 316 314 314 314 315 315 316 316 317 318 319 318 317 316 316
322 322 320 324 334 333 335 338 341 340 342 342 335 339 344 348 344 338 341 342 339 325 324 325 326 329 332 335 338 337 335 326 322 315 313 314 314 315 316 318 318 319 320 320 320 318 317 317 317
319 316 317 320 331 331 334 336 336 338 339 342 335 339 346 344 340 342 342 342 342 339 325 327 331 334 339 339 336 331 325 322 314 314 315 323 323 324 322 323 322 322 321 321 320 319 319 319 317
321 315 317 321 328 331 331 334 338 337 337 337 335 334 337 343 342 342 342 343 344 334 328 330 335 340 339 335 325 324 322 314 315 324 328 329 326 322 326 324 323 323 322 321 321 320 319 318 318
323 316 325 330 330 328 330 331 335 337 337 339 339 336 341 343 342 341 342 345 344 341 331 332 337 339 335 326 324 323 315 315 320 327 329 327 325 325 326 326 325 323 323 322 321 320 318 317 316
320 318 331 330 328 323 325 329 334 336 339 341 342 339 336 342 343 342 342 343 344 344 342 337 337 339 331 324 325 317 323 323 328 328 328 327 329 326 326 326 325 323 322 322 321 321 320 318 316
323 322 329 330 326 327 326 326 328 330 328 341 341 333 332 334 341 340 340 340 345 345 345 341 338 334 325 324 322 328 329 328 328 329 327 325 327 327 326 325 325 325 324 323 323 322 321 318 316
324 326 329 327 326 326 323 327 327 328 332 335 336 334 333 333 339 339 339 338 340 341 342 339 337 332 329 331 329 331 331 330 329 329 327 325 324 326 325 324 324 325 324 324 323 323 320 318 317
326 325 328 327 327 327 327 326 326 328 333 337 338 339 337 333 334 336 335 335 337 335 337 337 334 330 330 331 330 331 330 329 328 328 327 327 325 322 321 320 324 324 324 324 323 321 320 318 315
326 327 327 327 326 327 327 326 326 328 333 342 336 335 335 333 334 333 331 332 332 332 330 334 335 334 333 333 332 331 331 330 328 327 326 325 326 323 320 320 323 324 322 323 321 319 319 316 311
326 324 323 325 326 326 327 323 327 331 341 341 339 338 339 338 336 334 330 333 333 332 329 329 335 336 335 333 332 331 329 326 326 326 325 324 323 322 322 321 321 322 322 319 319 319 316 311 310
321 322 321 323 325 326 325 323 328 330 345 343 342 342 339 338 338 337 335 335 332 330 329 330 335 337 335 333 331 327 327 328 327 327 326 323 322 322 321 321 320 319 319 319 319 315 311 310 308
320 319 321 326 325 326 324 325 329 332 345 340 338 337 337 335 335 335 335 332 330 331 331 330 332 333 328 327 327 328 326 322 324 323 322 322 321 321 320 320 320 319 319 318 314 310 312 309 310
323 324 325 326 326 326 326 325 324 332 342 338 335 336 334 334 334 333 333 330 330 331 330 331 332 328 327 327 327 323 322 321 321 321 321 321 321 321 320 321 320 320 319 314 311 312 309 310 311
324 325 326 327 325 326 326 326 329 343 342 339 337 334 331 331 332 332 331 330 330 328 328 328 327 327 326 322 321 322 322 321 321 321 321 321 322 323 322 321 320 319 315 312 311 311 309 311 311
328 327 327 326 326 324 324 327 333 333 331 333 335 335 332 329 329 329 329 328 328 328 326 325 324 322 321 322 322 322 323 323 323 323 323 324 323 323 322 321 317 316 314 312 310 310 310 310 310
326 326 326 326 326 325 326 332 334 332 337 334 333 333 332 331 328 328 328 327 327 325 323 323 322 322 322 321 322 321 321 322 322 321 323 323 322 322 322 316 316 316 313 311 310 310 310 311 309
326 327 327 327 324 323 325 326 333 337 336 332 329 327 326 327 326 326 325 324 325 325 324 322 320 321 320 319 319 318 317 317 318 318 318 319 319 317 315 315 316 315 312 310 309 310 311 310 310
326 325 324 324 322 322 324 331 335 338 337 332 328 324 321 323 326 326 325 324 324 323 321 319 319 317 316 316 315 314 314 314 314 314 313 313 314 315 314 314 313 312 311 310 311 311 310 310 310
325 324 324 323 322 325 328 333 342 341 335 331 325 322 320 321 321 319 316 316 316 316 316 316 316 315 315 315 314 314 315 315 315 313 314 314 315 313 313 313 311 310 310 310 310 310 310 310 310
325 322 323 325 325 326 326 340 338 334 332 327 323 319 318 317 317 317 316 316 316 316 316 315 315 314 314 314 314 314 313 311 313 313 313 313 312 311 312 312 311 311 310 310 310 310 310 310 309
325 326 323 329 329 327 325 338 336 329 325 322 320 318 317 317 317 317 317 314 315 315 314 314 313 314 313 312 313 313 311 311 310 311 310 310 310 311 311 311 312 311 310 310 310 311 310 310 309
327 326 323 327 326 323 335 336 332 329 326 323 320 318 318 318 317 317 316 314 315 315 314 314 313 312 311 309 309 309 309 309 310 310 311 311 311 311 310 310 310 310 310 310 311 310 309 309 309
328 326 324 324 328 327 329 333 335 333 328 324 320 319 318 318 318 316 315 315 313 313 313 312 310 309 309 309 309 309 309 309 310 309 310 309 309 309 309 310 310 310 310 311 310 310 309 309 309
326 327 326 326 327 326 327 333 329 327 325 323 320 319 319 318 318 316 316 314 313 312 311 309 306 307 308 309 309 309 309 307 309 309 308 308 308 308 309 309 309 310 310 311 310 309 310 309 309
326 330 327 326 327 323 323 328 325 325 324 321 320 320 320 318 318 317 314 312 312 310 308 308 309 308 308 308 308 308 307 308 308 308 308 308 309 308 308 307 308 309 309 309 308 309 309 308 308
Wind_Speed
20 19 12 6 2 5 3 7 8 6 2 13 9 11 8 4 3 6 20 11 14 18 19 19 18 17 17 16 16 16 16 15 15 16 17 17 17 16 15 15 15 14 13 13 14 14 14 14 14
23 17 7 6 3 3 4 3 2 5 7 17 20 19 8 4 16 25 25 14 13 17 19 18 17 17 17 17 17 17 17 17 18 18 18 17 16 16 15 14 14 14 14 15 15 15 15 16 17
20 10 3 3 3 4 4 6 11 9 11 14 11 15 8 7 25 20 22 20 14 18 19 19 18 18 19 19 19 19 19 19 19 18 17 17 17 15 15 14 14 14 14 14 15 16 17 18 18
9 3 5 1 7 2 8 10 21 11 13 12 13 6 8 13 27 23 25 20 13 18 19 19 20 19 19 20 20 19 19 19 17 16 17 16 16 15 14 14 13 13 14 14 15 17 18 18 18
6 5 2 3 8 4 13 13 19 8 15 22 18 7 11 20 17 22 21 16 19 21 21 20 19 20 20 19 19 18 17 17 16 17 15 16 15 14 13 12 13 13 14 15 17 19 21 20 20
5 3 3 6 6 7 5 16 12 34 30 11 15 11 5 15 15 26 21 18 16 20 23 23 22 21 20 19 18 17 17 17 16 15 15 14 13 12 13 14 14 15 16 16 18 21 23 21 21
7 1 7 10 7 19 4 7 13 18 21 8 16 6 13 16 16 25 22 21 16 13 22 23 23 22 20 17 16 16 17 15 15 15 14 14 11 12 14 15 16 16 17 18 20 21 19 21 26
21 4 9 11 4 14 3 2 15 10 3 31 24 4 8 27 20 21 25 27 20 18 21 25 24 22 21 19 17 18 16 15 14 13 12 10 11 12 11 15 16 17 16 16 16 16 17 20 24
17 1 7 6 3 6 9 4 2 7 23 15 25 18 20 19 24 22 27 28 24 22 26 23 21 20 20 20 20 18 17 16 16 13 9 10 11 11 12 11 14 15 12 12 12 15 21 23 27
7 4 7 8 8 5 13 4 6 7 15 12 23 26 25 9 23 24 21 29 31 30 32 29 24 18 17 20 20 18 16 13 12 10 10 8 9 12 11 7 9 12 8 6 7 13 28 29 32
14 7 8 6 13 16 13 20 10 3 2 32 31 34 22 23 19 21 20 24 14 39 37 29 24 20 18 17 17 13 12 11 11 8 9 7 6 5 6 4 5 10 9 14 18 20 30 27 32
4 12 4 4 10 6 7 12 14 17 5 12 37 32 22 17 12 21 19 25 33 49 29 39 24 21 20 18 19 14 11 10 13 6 5 6 8 8 7 6 3 7 12 16 20 23 27 28 33
3 8 2 2 3 1 9 13 9 15 6 27 39 27 26 20 9 12 13 28 27 32 41 36 23 20 21 17 21 25 25 18 11 3 5 8 11 10 10 9 8 9 13 18 22 27 25 29 36
10 12 14 6 1 3 3 10 15 16 45 37 35 32 25 17 14 16 4 7 15 19 22 21 24 17 25 25 24 21 16 10 7 9 3 6 10 13 11 10 9 13 19 19 23 24 28 33 37
10 5 9 14 10 3 5 10 9 22 39 47 37 34 25 20 10 3 5 14 17 24 26 18 21 19 17 20 20 15 14 10 9 11 13 12 12 13 13 16 20 20 17 23 25 28 32 34 30
8 5 5 13 7 3 5 6 6 20 50 39 34 30 28 22 14 10 13 20 26 24 12 12 17 18 19 20 21 17 8 16 16 14 16 14 15 17 20 22 15 17 20 24 29 33 31 24 21
6 8 7 5 8 3 7 5 5 23 50 39 36 32 28 25 16 7 18 17 23 8 12 14 19 17 15 13 10 9 7 8 8 10 12 16 20 19 20 19 19 21 24 27 31 28 26 22 14
6 2 6 6 5 7 6 6 8 19 47 36 35 35 29 24 24 18 11 12 13 6 7 14 16 13 7 9 8 1 5 9 10 12 16 21 21 21 22 21 21 22 26 27 30 21 20 14 16
7 9 8 5 5 3 4 5 18 39 37 34 34 34 35 23 19 20 18 17 18 16 13 9 6 3 2 5 7 3 16 16 14 12 12 14 16 19 21 18 21 25 24 27 28 20 16 13 15
10 10 8 9 10 8 8 8 25 28 24 33 29 29 33 24 22 19 17 18 17 13 12 9 6 5 8 5 7 12 13 10 10 11 12 13 14 17 13 18 19 20 23 25 19 13 13 14 14
8 9 9 8 9 8 5 10 14 12 30 36 33 32 28 24 21 21 20 16 15 14 10 8 6 3 1 5 8 9 10 13 14 20 15 14 14 13 17 18 18 17 20 23 13 9 11 14 12
6 7 7 9 8 6 1 4 9 8 20 25 25 22 21 21 20 19 18 16 13 15 9 10 10 5 10 10 12 15 13 10 16 17 18 17 18 19 15 15 14 14 18 17 12 11 10 10 12
4 9 8 8 11 8 18 6 4 6 10 12 18 16 13 18 21 15 14 11 10 9 10 10 10 12 11 12 16 22 20 17 20 21 20 14 13 12 13 13 11 14 16 14 13 10 11 9 12
10 13 12 7 4 4 6 4 3 2 4 7 14 11 15 20 20 19 18 16 16 15 16 16 16 15 22 20 20 13 15 17 20 20 17 13 9 12 11 11 13 14 17 11 9 11 12 11 11
9 6 4 6 5 5 7 9 5 12 14 15 13 13 17 17 17 14 14 17 14 14 14 14 15 21 19 17 15 16 17 17 17 20 19 17 16 16 15 13 13 14 12 13 11 12 11 9 10
5 4 4 3 4 9 12 4 5 13 22 17 14 13 15 15 14 12 12 17 13 12 12 17 17 15 15 18 16 15 20 19 20 17 16 17 16 13 11 14 12 11 13 11 13 12 8 8 8
1 2 5 2 4 4 4 5 6 12 15 20 13 14 13 11 10 5 11 11 11 13 12 16 13 18 24 23 19 19 18 19 20 17 18 17 17 16 15 16 16 16 15 12 13 9 7 7 5
2 3 5 4 3 4 3 6 5 8 9 10 10 14 15 10 5 11 11 10 19 19 10 13 19 21 19 20 20 21 22 23 18 18 20 20 18 20 18 14 12 11 10 11 6 4 4 3 4
6 5 4 2 3 3 1 4 7 11 8 6 6 11 7 4 4 9 9 13 8 7 16 21 18 17 19 20 21 21 22 27 24 14 14 15 14 14 16 16 12 8 6 4 2 2 3 6 8
4 2 2 3 4 2 3 3 6 5 7 10 10 8 5 3 4 6 11 9 13 21 16 18 17 18 19 22 23 21 21 23 20 14 14 15 14 13 15 14 11 9 8 6 5 2 2 5 8
Wind_Direction
317 334 334 307 97 68 223 209 172 258 50 73 88 108 105 31 84 160 151 166 145 149 151 149 149 146 141 137 133 130 126 122 120 118 114 109 103 97 94 91 86 79 71 65 59 49 40 34 27
316 327 303 256 126 80 265 136 212 132 144 118 112 114 67 66 102 126 138 160 154 150 148 147 146 144 140 136 133 132 130 128 126 122 116 112 107 102 96 87 80 74 65 55 46 38 32 24 18
320 322 273 183 160 171 229 195 213 181 168 154 109 104 105 99 131 141 158 164 161 147 145 147 149 147 144 141 139 138 136 132 127 122 117 112 107 99 93 86 74 64 56 48 41 34 28 21 15
330 12 256 154 276 290 191 222 203 168 124 94 99 79 108 158 153 164 163 172 158 149 150 150 150 147 144 140 137 138 134 129 127 123 119 113 107 101 90 78 66 57 50 43 35 27 21 16 11
319 278 309 288 249 265 221 140 129 170 79 88 102 10 113 151 168 170 170 178 162 151 152 150 148 144 141 138 138 133 131 129 127 122 115 112 106 97 84 69 59 51 42 33 27 22 18 15 9
291 286 318 298 317 325 123 115 106 92 111 110 75 94 347 161 169 154 156 169 143 147 153 151 148 146 143 143 137 136 134 130 124 119 113 104 96 82 72 53 43 36 31 27 21 17 17 12 6
234 62 260 278 292 290 122 148 118 128 127 164 152 122 151 152 152 154 164 174 170 173 158 152 150 149 145 141 135 134 128 122 113 104 94 79 71 63 46 32 33 28 28 27 25 26 19 1 352
252 125 289 269 278 271 182 142 142 139 141 137 135 102 310 160 153 170 171 177 177 167 168 161 157 153 149 143 137 131 122 113 102 92 95 77 66 44 42 34 32 33 35 36 33 21 11 352 344
255 44 263 260 341 191 186 138 183 144 136 125 167 101 82 166 165 174 175 184 181 171 172 168 160 155 149 141 134 129 126 119 109 94 58 63 45 35 28 25 33 25 31 35 20 17 352 345 347
188 137 299 261 318 2 359 357 186 166 112 111 115 108 129 225 194 191 186 183 187 179 168 161 165 146 150 139 133 129 125 130 117 98 88 70 58 52 46 50 20 23 18 2 344 316 343 346 348
224 202 245 331 27 9 346 321 303 40 5 150 121 128 110 208 318 53 8 1 210 184 163 143 141 115 134 130 128 114 94 105 114 140 109 135 166 207 251 329 353 0 322 309 307 317 336 341 343
263 272 249 5 43 339 322 351 356 357 87 112 148 143 158 175 153 101 66 34 7 28 123 136 122 117 116 113 125 123 122 132 153 176 220 222 238 221 250 284 293 313 306 309 314 321 328 334 333
310 297 301 94 325 286 340 325 345 329 83 137 128 123 142 145 124 94 105 68 40 59 75 102 135 136 133 139 147 141 134 130 143 191 275 244 253 260 287 291 283 307 303 306 310 317 326 324 325
321 313 329 322 341 326 57 318 324 38 78 122 105 98 110 110 119 140 88 11 125 108 118 119 119 139 154 151 156 164 169 182 208 202 226 282 291 293 299 297 301 293 303 299 311 323 323 324 325
310 344 308 286 253 108 60 341 36 67 78 91 88 99 103 86 103 160 197 156 166 153 145 185 169 172 173 178 190 179 187 213 241 258 272 271 289 291 293 298 298 295 311 314 319 323 322 323 326
310 295 280 269 148 153 109 297 40 73 92 90 88 88 89 90 77 97 129 161 157 168 193 213 193 199 199 185 187 193 284 319 320 304 295 282 278 283 294 307 311 312 317 323 324 324 328 333 333
299 258 249 278 98 101 68 337 86 86 103 97 93 90 86 81 69 105 164 164 178 198 221 194 203 193 176 178 189 306 352 350 321 297 274 267 272 283 310 309 310 319 322 325 327 330 334 342 354
317 282 19 79 35 51 22 343 320 103 93 97 95 92 85 82 84 76 105 183 197 253 192 196 195 188 227 265 287 256 306 300 305 296 299 296 293 293 296 298 311 316 323 329 334 330 339 346 350
339 344 33 108 38 62 8 317 15 94 93 94 94 100 97 90 94 93 105 123 130 125 133 138 153 185 191 180 205 255 330 318 306 311 307 300 295 297 296 297 318 321 325 334 334 332 338 348 350
30 34 359 347 2 21 346 51 60 63 77 82 84 87 89 93 93 87 89 93 109 116 120 121 121 144 189 245 272 339 346 353 339 318 305 297 288 291 287 315 315 321 326 332 331 332 338 344 353
49 28 2 339 327 333 322 64 65 66 72 65 63 79 83 95 96 102 108 110 121 117 111 82 82 62 336 343 323 330 329 323 322 322 306 310 308 296 304 312 303 316 320 329 319 318 333 336 357
8 356 339 325 353 300 44 270 54 70 67 66 63 63 78 94 93 104 108 116 100 106 93 67 58 46 7 2 349 341 322 324 320 314 317 315 309 309 296 291 305 302 318 326 306 310 315 334 332
328 25 356 321 306 287 276 92 191 100 76 76 74 60 71 84 94 85 73 66 56 47 46 39 34 36 27 15 357 339 328 320 313 313 313 301 291 299 314 308 300 303 317 316 300 310 314 321 321
16 3 336 331 300 16 7 93 37 5 103 82 70 63 70 71 72 74 67 57 48 37 27 16 6 0 343 342 354 343 319 319 319 320 311 312 305 313 313 303 309 322 326 313 314 316 313 311 312
3 2 343 10 353 251 353 64 82 56 71 92 93 78 77 78 75 66 55 35 29 23 21 16 5 2 3 350 336 321 320 328 319 316 316 315 311 293 308 307 313 314 321 316 319 311 311 309 299
293 81 129 278 277 281 321 58 87 87 87 85 105 121 104 93 81 65 38 13 17 13 15 357 1 0 348 342 340 336 335 328 326 323 321 323 317 311 309 307 295 305 303 302 299 303 292 293 291
325 20 269 191 302 29 128 91 116 115 121 129 156 140 107 90 92 66 11 8 16 20 11 6 2 354 344 347 346 343 344 338 334 327 325 320 321 316 305 293 289 291 286 281 291 287 281 279 266
2 336 19 2 334 313 83 83 356 122 121 130 138 124 118 120 88 8 16 27 10 13 38 5 0 360 351 359 3 352 340 334 335 318 337 330 314 331 323 315 298 305 296 284 283 300 293 318 330
1 22 30 68 1 242 335 82 50 83 93 107 100 115 121 96 352 6 27 14 39 18 353 355 4 5 2 356 356 351 350 340 310 342 334 339 344 343 340 344 335 346 316 306 7 18 355 0 334
30 233 337 144 255 255 137 89 358 42 113 139 160 166 123 52 5 37 16 33 355 352 8 11 357 350 358 350 349 348 348 353 2 349 347 346 340 352 342 341 337 346 335 7 71 3 0 330 311